Weather History for Howell, MI

Change the Weather History Date:

Thursday, February 13, 2014

  Actual Average Record
Temperature  
Mean Temperature 22 °F -  
Max Temperature 32 °F 33 °F 69 °F (1997)
Min Temperature 12 °F 20 °F 1 °F (1997)
Degree Days  
Heating Degree Days 43    
Moisture  
Dew Point 8 °F    
Average Humidity 58    
Maximum Humidity 75    
Minimum Humidity 31    
Precipitation  
Precipitation 0.00 in - - ()
Sea Level Pressure  
Sea Level Pressure 29.80 in    
Wind  
Wind Speed 5 mph (SE)    
Max Wind Speed 14 mph    
Max Gust Speed 18 mph    
Visibility 10 miles    
Events Snow    
Averages and records for this station are not official NWS values.
T = Trace of Precipitation, MM = Missing Value Source: NWS Daily Summary

Daily Weather History Graph

Daily Weather History Graph

Search for Another Location

Airport:

Trip Planner

Search our weather history database for the weather conditions in past years. The results will help you decide how hot, cold, wet, or windy it might be!

Date:

Astronomy

Feb. 13, 2014 Rise Set
Actual Time 7:35 AM EST 6:05 PM EST
Civil Twilight 7:06 AM EST 6:34 PM EST
Nautical Twilight 6:33 AM EST 7:07 PM EST
Astronomical Twilight 6:00 AM EST 7:40 PM EST
Moon 5:12 PM EST (2/13) 6:28 AM EST (2/13)
Length of Visible Light 11h 27m
Length of Day
10h 29m
Waxing Gibbous, 98% of the Moon is Illuminated
Feb 13
Waxing Gibbous
Feb 14
Full
Feb 22
Last Quarter
Mar 1
New
Mar 8
First Quarter

Hourly Weather History & Observations

Time (EST) Temp. Windchill Dew Point Humidity Pressure Visibility Wind Dir Wind Speed Gust Speed Precip Events Conditions
12:15 AM 17.2 °F 11.9 °F 7.2 °F 65% 30.03 in 10.0 mi SE 3.5 mph - N/A   Overcast
12:34 AM 17.1 °F 11.7 °F 6.6 °F 64% 30.03 in 10.0 mi SE 3.5 mph - N/A   Overcast
12:55 AM 15.8 °F - 5.9 °F 65% 30.03 in 10.0 mi Calm Calm - N/A   Overcast
1:15 AM 15.6 °F - 5.7 °F 65% 30.02 in 10.0 mi Calm Calm - N/A   Overcast
1:34 AM 16.0 °F - 6.6 °F 67% 30.02 in 10.0 mi Calm Calm - N/A   Overcast
1:55 AM 16.7 °F 9.6 °F 7.0 °F 66% 30.02 in 10.0 mi SSE 4.6 mph - N/A   Overcast
2:15 AM 16.7 °F 8.3 °F 6.8 °F 65% 30.03 in 10.0 mi South 5.8 mph - N/A   Overcast
2:35 AM 16.7 °F 5.3 °F 7.3 °F 67% 30.02 in 10.0 mi SSE 9.2 mph - N/A   Overcast
2:55 AM 16.7 °F 8.3 °F 7.3 °F 67% 30.03 in 10.0 mi SSE 5.8 mph - N/A   Overcast
3:15 AM 16.7 °F - 7.5 °F 67% 30.01 in 10.0 mi Calm Calm - N/A   Overcast
3:35 AM 16.7 °F - 7.3 °F 67% 30.00 in 10.0 mi Calm Calm - N/A   Overcast
3:55 AM 17.1 °F - 7.5 °F 66% 30.00 in 10.0 mi Calm Calm - N/A   Overcast
4:14 AM 17.4 °F - 7.7 °F 66% 29.99 in 10.0 mi Calm Calm - N/A   Overcast
4:35 AM 17.4 °F - 8.1 °F 67% 29.98 in 10.0 mi Calm Calm - N/A   Overcast
4:55 AM 17.2 °F 11.9 °F 8.4 °F 68% 29.98 in 10.0 mi NW 3.5 mph - N/A   Overcast
5:14 AM 17.2 °F - 8.8 °F 69% 29.98 in 10.0 mi Calm Calm - N/A   Overcast
5:35 AM 17.1 °F - 8.1 °F 68% 29.98 in 10.0 mi Calm Calm - N/A   Overcast
5:55 AM 17.2 °F - 8.6 °F 69% 29.96 in 10.0 mi Calm Calm - N/A   Overcast
6:14 AM 17.4 °F 9.1 °F 9.0 °F 69% 29.95 in 10.0 mi SSE 5.8 mph - N/A   Overcast
6:35 AM 17.4 °F 9.1 °F 9.0 °F 69% 29.94 in 10.0 mi SE 5.8 mph - N/A   Overcast
6:55 AM 15.6 °F - 7.9 °F 72% 29.93 in 10.0 mi Calm Calm - N/A   Scattered Clouds
7:14 AM 14.0 °F 8.2 °F 7.0 °F 74% 29.93 in 10.0 mi East 3.5 mph - N/A   Clear
7:35 AM 14.2 °F - 7.2 °F 74% 29.93 in 10.0 mi Calm Calm - N/A   Clear
7:55 AM 14.7 °F 7.3 °F 7.3 °F 73% 29.93 in 7.0 mi SE 4.6 mph - N/A   Clear
8:14 AM 12.2 °F - 5.5 °F 75% 29.92 in 7.0 mi Calm Calm - N/A   Clear
8:35 AM 13.1 °F 7.1 °F 5.9 °F 73% 29.92 in 10.0 mi ESE 3.5 mph - N/A   Clear
8:55 AM 14.7 °F 9.0 °F 7.5 °F 73% 29.92 in 7.0 mi ESE 3.5 mph - N/A   Clear
9:15 AM 16.0 °F 10.4 °F 8.2 °F 72% 29.91 in 7.0 mi East 3.5 mph - N/A   Clear
9:35 AM 18.0 °F 9.8 °F 8.6 °F 67% 29.91 in 7.0 mi ESE 5.8 mph - N/A   Clear
9:55 AM 18.5 °F 11.7 °F 9.0 °F 66% 29.90 in 7.0 mi ESE 4.6 mph - N/A   Clear
10:15 AM 19.4 °F 11.5 °F 9.3 °F 65% 29.89 in 7.0 mi SE 5.8 mph - N/A   Clear
10:35 AM 20.8 °F 13.2 °F 8.8 °F 60% 29.88 in 10.0 mi SE 5.8 mph - N/A   Clear
10:55 AM 22.1 °F 13.7 °F 7.5 °F 54% 29.88 in 10.0 mi SE 6.9 mph - N/A   Clear
11:15 AM 23.0 °F 13.1 °F 6.8 °F 50% 29.86 in 10.0 mi SE 9.2 mph - N/A   Clear
11:35 AM 24.4 °F 15.6 °F 7.3 °F 48% 29.85 in 10.0 mi ESE 8.1 mph - N/A   Clear
11:55 AM 25.7 °F 15.1 °F 6.3 °F 44% 29.84 in 10.0 mi SE 11.5 mph - N/A   Clear
12:15 PM 27.1 °F 18.9 °F 5.5 °F 40% 29.83 in 10.0 mi SSE 8.1 mph - N/A   Clear
12:35 PM 27.9 °F 19.8 °F 5.4 °F 38% 29.81 in 10.0 mi SE 8.1 mph - N/A   Clear
12:55 PM 28.6 °F 20.7 °F 6.4 °F 39% 29.79 in 10.0 mi SE 8.1 mph - N/A   Clear
1:15 PM 29.3 °F 20.2 °F 5.4 °F 36% 29.76 in 10.0 mi SSE 10.4 mph - N/A   Clear
1:35 PM 29.7 °F 21.3 °F 6.6 °F 38% 29.75 in 10.0 mi SE 9.2 mph - N/A   Clear
1:55 PM 30.6 °F 24.7 °F 5.5 °F 35% 29.73 in 10.0 mi SSE 5.8 mph - N/A   Clear
2:35 PM 31.6 °F 23.1 °F 4.8 °F 32% 29.71 in 10.0 mi SSE 10.4 mph - N/A   Scattered Clouds
2:55 PM 31.3 °F 23.9 °F 7.2 °F 36% 29.71 in 10.0 mi SSE 8.1 mph - N/A   Mostly Cloudy
3:15 PM 32.0 °F 23.0 °F 4.1 °F 31% 29.69 in 10.0 mi South 11.5 mph - N/A   Scattered Clouds
3:35 PM 31.6 °F 24.4 °F 4.8 °F 32% 29.69 in 10.0 mi South 8.1 mph - N/A   Scattered Clouds
3:55 PM 31.5 °F 23.5 °F 5.4 °F 33% 29.69 in 10.0 mi SSW 9.2 mph - N/A   Clear
4:15 PM 30.4 °F 21.0 °F 2.8 °F 31% 29.68 in 10.0 mi SSW 11.5 mph - N/A   Clear
4:35 PM 29.8 °F 20.9 °F 3.4 °F 32% 29.67 in 10.0 mi South 10.4 mph - N/A   Clear
4:55 PM 28.8 °F 19.5 °F 3.6 °F 34% 29.66 in 10.0 mi South 10.4 mph - N/A   Scattered Clouds
5:15 PM 28.2 °F 19.5 °F 6.1 °F 39% 29.65 in 10.0 mi South 9.2 mph - N/A   Mostly Cloudy
5:35 PM 27.9 °F 19.8 °F 8.2 °F 44% 29.64 in 10.0 mi SSE 8.1 mph - N/A   Overcast
5:55 PM 26.8 °F 16.5 °F 8.8 °F 47% 29.63 in 10.0 mi SE 11.5 mph - N/A   Overcast
6:15 PM 26.1 °F 15.6 °F 10.4 °F 52% 29.62 in 10.0 mi SE 11.5 mph - N/A   Overcast
6:35 PM 25.7 °F 14.6 °F 10.8 °F 53% 29.62 in 10.0 mi SSE 12.7 mph 18.4 mph N/A   Overcast
6:55 PM 25.3 °F 15.3 °F 9.7 °F 52% 29.61 in 10.0 mi SSE 10.4 mph - N/A   Overcast
7:15 PM 24.8 °F 13.4 °F 9.0 °F 51% 29.61 in 10.0 mi SSE 12.7 mph - N/A   Overcast
7:35 PM 24.6 °F 14.4 °F 8.8 °F 51% 29.62 in 10.0 mi SSE 10.4 mph - N/A   Overcast
7:55 PM 23.0 °F 11.7 °F 12.4 °F 64% 29.61 in 3.0 mi SSE 11.5 mph - N/A Snow Light Snow
8:15 PM 22.6 °F 10.7 °F 12.6 °F 65% 29.60 in 10.0 mi SE 12.7 mph - N/A   Overcast
8:35 PM 22.1 °F 11.3 °F 12.9 °F 68% 29.58 in 10.0 mi SE 10.4 mph - N/A   Overcast
8:55 PM 21.7 °F 9.0 °F 13.1 °F 69% 29.57 in 10.0 mi SE 13.8 mph - N/A   Overcast
9:15 PM 21.6 °F 10.6 °F 13.1 °F 70% 29.56 in 10.0 mi SSE 10.4 mph - N/A   Overcast
9:35 PM 21.2 °F 10.1 °F 13.1 °F 71% 29.55 in 10.0 mi SE 10.4 mph - N/A   Overcast
9:55 PM 21.0 °F 9.9 °F 12.9 °F 71% 29.54 in 10.0 mi SSE 10.4 mph - N/A   Overcast
10:15 PM 21.0 °F 9.3 °F 12.7 °F 70% 29.53 in 10.0 mi SSE 11.5 mph - N/A   Overcast
10:35 PM 21.0 °F 9.3 °F 12.2 °F 69% 29.52 in 10.0 mi SSE 11.5 mph - N/A   Overcast
10:54 PM 21.0 °F 9.3 °F 12.2 °F 69% 29.51 in 10.0 mi SSE 11.5 mph - N/A   Overcast
11:15 PM 21.0 °F 10.6 °F 12.2 °F 69% 29.49 in 10.0 mi SE 9.2 mph - N/A   Overcast
11:35 PM 21.0 °F 11.4 °F 12.2 °F 69% 29.48 in 10.0 mi SSE 8.1 mph - N/A   Overcast
11:54 PM 21.0 °F 13.4 °F 12.2 °F 69% 29.47 in 10.0 mi SSE 5.8 mph - N/A   Overcast